RH
20 20 19 18 18 17 17 17 17 18 18 19 18 18 20 23 26 29 30 31 28 23 26 33 37 40 43 45 49 47 41 37 37 37 37 39 41 43 45 46 48 49
22 22 22 21 20 18 17 17 18 18 18 19 19 18 18 20 24 28 30 31 28 24 26 33 36 38 42 45 47 44 39 37 36 36 37 38 40 43 45 47 49 50
22 23 24 24 23 21 20 20 19 19 19 19 20 19 19 19 22 25 28 30 28 24 27 32 34 36 41 45 45 41 37 36 36 36 37 38 40 42 43 46 49 50
22 23 24 26 25 24 24 23 22 21 21 20 20 20 20 19 19 23 26 28 27 25 27 31 33 35 40 44 43 38 35 36 37 37 37 39 40 41 42 45 48 51
23 24 25 26 27 27 26 26 25 24 23 22 21 21 21 19 19 21 24 26 26 26 28 31 32 34 39 44 42 36 35 37 38 37 38 39 40 40 42 44 48 52
25 25 26 26 27 28 28 27 26 25 25 24 24 23 22 20 19 20 23 25 26 27 28 30 33 34 38 44 42 37 35 37 38 38 38 39 39 40 42 44 48 52
27 27 26 26 27 28 29 29 28 27 26 26 26 26 24 22 20 20 22 25 26 27 28 30 33 35 38 43 42 38 36 37 39 39 39 39 39 39 41 43 47 50
31 29 27 26 26 27 29 30 29 29 28 27 27 27 26 24 21 20 23 25 27 27 27 30 34 35 37 42 43 39 37 38 39 39 40 40 38 38 39 41 44 46
36 33 30 28 27 28 28 30 30 30 29 28 28 27 27 25 22 21 23 25 27 27 26 29 34 36 38 42 43 40 38 38 38 40 41 40 39 38 38 39 41 43
38 35 32 30 30 29 29 29 29 29 29 29 28 28 27 26 24 22 23 26 27 28 27 29 33 36 38 41 42 41 40 39 39 41 42 42 40 39 38 39 39 41
38 36 34 32 32 32 32 31 29 28 28 28 28 28 27 27 25 23 24 26 27 27 28 29 32 36 38 40 41 41 41 40 41 42 42 43 42 40 40 39 39 40
37 36 34 34 34 34 33 32 29 27 25 25 25 26 26 26 26 25 25 27 27 27 29 30 32 35 38 39 40 40 40 41 42 42 42 43 43 42 41 40 40 40
37 35 35 35 35 35 35 33 31 29 26 23 22 22 23 24 25 25 26 28 28 28 29 30 32 34 36 38 39 40 40 41 43 44 44 44 44 42 41 41 41 42
37 37 36 36 36 36 37 37 35 32 28 25 23 21 20 21 21 23 24 27 29 29 30 30 31 33 35 37 38 39 40 41 43 44 46 45 43 42 42 42 43 44
38 39 38 37 37 37 38 39 39 37 32 29 26 23 22 21 21 22 24 26 28 29 30 30 31 32 33 35 37 38 40 41 42 44 47 47 44 42 42 43 44 46
40 40 39 38 38 38 39 41 41 40 37 33 30 26 24 24 24 25 27 28 28 29 29 30 29 30 32 35 36 37 39 40 41 43 46 47 45 43 42 43 45 47
41 41 41 40 39 39 40 42 42 41 39 37 34 31 28 26 25 26 28 29 29 29 29 28 28 29 32 35 36 36 38 39 40 42 44 46 45 43 43 43 44 45
41 42 41 41 40 40 40 42 43 42 41 38 36 35 33 30 27 26 27 29 29 28 27 27 26 28 31 34 35 36 36 37 39 41 43 44 43 43 43 44 44 44
42 42 42 41 41 42 43 44 44 43 42 40 39 37 36 34 31 28 27 28 29 28 26 25 25 26 29 33 35 35 34 35 37 39 42 43 41 41 43 44 45 45
44 43 43 43 44 46 46 45 44 43 42 42 42 40 37 36 34 33 30 28 28 27 26 25 24 25 27 31 34 35 34 34 36 38 40 41 40 40 42 44 45 45
46 46 45 46 47 48 47 46 45 44 44 44 44 42 40 37 36 35 34 32 29 28 26 25 23 24 26 28 31 34 34 34 34 36 39 40 40 40 42 44 44 45
47 48 48 48 48 49 48 47 46 46 46 46 45 44 42 40 38 37 36 34 32 30 28 25 24 24 25 27 29 32 34 34 34 35 38 40 41 41 42 43 44 46
49 49 49 48 48 48 48 46 46 47 49 49 48 47 45 43 42 40 38 36 35 32 30 28 26 24 25 26 28 30 32 33 33 35 38 40 41 41 43 44 45 47
48 49 49 47 45 45 45 44 44 46 48 49 48 48 48 47 46 44 41 38 36 35 33 31 29 26 24 25 27 28 31 33 33 35 38 40 41 42 43 45 46 48
44 46 48 46 43 42 42 43 44 45 47 48 49 49 48 48 49 48 44 41 39 38 35 33 32 30 27 26 26 27 30 33 34 35 37 39 42 43 44 45 47 50
44 46 47 45 42 41 42 43 43 44 46 47 49 49 49 48 48 48 46 45 43 41 39 36 35 33 32 30 28 28 29 32 34 34 35 39 42 44 46 47 48 52